OM2RC-6 Weather Reports


time (UTC)temp
C
wind
direction
speed
KPH
gust
KPH
rain 1hr
cm
rain 24hr
cm
rain mn
cm
humidity
%
barometer
mb
20260507231835 12 186 11.3 25.7 0.00 0.00 0.00 100 1016.5
20260507231334 12 174 12.9 25.7 0.00 0.00 0.00 100 1016.4
20260507230832 12 222 9.7 19.3 0.00 0.00 0.00 100 1016.4
20260507230331 13 222 9.7 22.5 0.00 0.00 0.00 100 1016.4
20260507225830 13 205 8.0 25.7 0.00 0.00 0.00 100 1016.4
20260507225328 13 200 11.3 27.4 0.00 0.00 0.00 100 1016.5
20260507224827 13 204 12.9 27.4 0.00 0.00 0.00 100 1016.5
20260507224326 13 200 11.3 25.7 0.00 0.00 0.00 100 1016.6
20260507223825 13 203 9.7 25.7 0.00 0.00 0.00 100 1016.5
20260507222322 13 189 9.7 19.3 0.00 0.00 0.00 100 1016.6
20260507221821 13 205 9.7 24.1 0.00 0.00 0.00 100 1016.6
20260507221319 13 189 11.3 24.1 0.00 0.00 0.00 100 1016.6
20260507220818 13 201 11.3 22.5 0.00 0.00 0.00 100 1016.6
20260507220314 13 201 9.7 22.5 0.00 0.00 0.00 100 1016.6
20260507215813 13 200 9.7 24.1 0.00 0.00 0.00 100 1016.6
20260507215312 13 185 8.0 20.9 0.00 0.00 0.00 100 1016.5
20260507214309 13 192 11.3 20.9 0.00 0.00 0.00 100 1016.5
20260507213808 12 202 12.9 22.5 0.00 0.00 0.00 100 1016.3
20260507213307 12 194 11.3 22.5 0.00 0.00 0.00 100 1016.4
20260507212806 12 195 9.7 25.7 0.00 0.00 0.00 100 1016.4
20260507212307 12 198 11.3 25.7 0.00 0.00 0.00 100 1016.3
20260507211804 12 206 14.5 27.4 0.00 0.00 0.00 100 1016.3
20260507211304 12 195 12.9 30.6 0.00 0.00 0.00 100 1016.3
20260507210300 13 195 9.7 24.1 0.00 0.00 0.00 100 1016.3
20260507205759 13 206 12.9 27.4 0.00 0.00 0.00 100 1016.1
20260507205258 13 203 14.5 29.0 0.00 0.00 0.00 100 1016.2
20260507204757 13 202 11.3 30.6 0.00 0.00 0.00 100 1016.3
20260507204256 13 203 14.5 30.6 0.00 0.00 0.00 100 1016.2
20260507203755 13 200 14.5 25.7 0.00 0.00 0.00 100 1016.2
20260507203254 13 207 9.7 25.7 0.00 0.00 0.00 100 1016.2
20260507202753 13 211 16.1 25.7 0.00 0.00 0.00 100 1016.2
20260507202252 13 177 14.5 24.1 0.00 0.00 0.00 100 1016.1
20260507201751 13 203 11.3 24.1 0.00 0.00 0.00 100 1016.2
20260507200749 13 198 11.3 24.1 0.00 0.00 0.00 100 1016.0
20260507200246 13 179 12.9 25.7 0.00 0.00 0.00 100 1016.0
20260507195745 13 192 11.3 25.7 0.00 0.00 0.00 100 1016.0
20260507195241 13 203 12.9 24.1 0.00 0.00 0.00 100 1016.1
20260507194740 13 195 9.7 20.9 0.00 0.00 0.00 100 1016.0
20260507194239 13 205 6.4 27.4 0.00 0.00 0.00 100 1016.0
20260507193738 13 201 12.9 27.4 0.00 0.00 0.00 100 1015.9
20260507193236 13 208 9.7 19.3 0.00 0.00 0.00 100 1015.9
20260507192736 14 204 9.7 25.7 0.00 0.00 0.00 100 1015.9
20260507192233 14 200 11.3 25.7 0.00 0.00 0.00 100 1015.9
20260507191731 14 196 11.3 20.9 0.00 0.00 0.00 100 1015.8
20260507191230 14 202 8.0 20.9 0.00 0.00 0.00 100 1015.8
20260507190228 14 202 11.3 24.1 0.00 0.00 0.00 100 1015.6
20260507185726 14 199 9.7 20.9 0.00 0.00 0.00 100 1015.5
20260507184723 15 196 11.3 20.9 0.00 0.00 0.00 99 1015.2
20260507184220 15 202 11.3 27.4 0.00 0.00 0.00 97 1015.2
20260507183717 15 204 12.9 30.6 0.00 0.00 0.00 97 1015.1
20260507183216 15 205 14.5 30.6 0.00 0.00 0.00 95 1015.0
20260507182715 15 200 14.5 29.0 0.00 0.00 0.00 93 1015.0
20260507182213 15 194 16.1 30.6 0.00 0.00 0.00 91 1014.9
20260507181208 16 199 14.5 29.0 0.00 0.00 0.00 89 1014.8
20260507180709 16 202 12.9 29.0 0.00 0.00 0.00 89 1014.8
20260507180206 16 198 12.9 22.5 0.00 0.00 0.00 89 1014.7
20260507175201 16 161 8.0 12.9 0.00 0.00 0.00 99 1014.5
20260507174655 16 164 8.0 12.9 0.00 0.00 0.00 97 1014.4
20260507174154 16 159 8.0 12.9 0.00 0.00 0.00 94 1014.3
20260507173650 16 152 6.4 12.9 0.00 0.00 0.00 93 1014.2
20260507173150 16 157 6.4 12.9 0.00 0.00 0.00 92 1014.2
20260507172648 17 159 8.0 12.9 0.00 0.00 0.00 90 1014.2
20260507172148 17 157 8.0 12.9 0.00 0.00 0.00 89 1014.1
20260507171645 17 155 8.0 12.9 0.00 0.00 0.00 88 1014.0
20260507171144 17 158 8.0 12.9 0.00 0.00 0.00 85 1013.9
20260507170643 17 152 6.4 14.5 0.00 0.00 0.00 83 1013.8
20260507170142 17 156 6.4 16.1 0.00 0.00 0.00 83 1013.7
20260507165641 18 157 6.4 16.1 0.00 0.00 0.00 81 1013.7
20260507165139 18 163 8.0 16.1 0.00 0.00 0.00 80 1013.7
20260507164637 18 162 9.7 16.1 0.00 0.00 0.00 79 1013.6
20260507163634 18 165 6.4 19.3 0.00 0.00 0.00 75 1013.5
20260507163133 19 164 9.7 16.1 0.00 0.00 0.00 72 1013.4
20260507162632 20 165 4.8 12.9 0.00 0.00 0.00 70 1013.4
20260507162131 21 157 8.0 12.9 0.00 0.00 0.00 66 1013.2
20260507161128 20 161 9.7 16.1 0.00 0.00 0.00 68 1013.4
20260507160627 20 159 6.4 11.3 0.00 0.00 0.00 67 1013.5
20260507160124 19 172 6.4 9.7 0.00 0.00 0.00 70 1013.4
20260507155622 19 164 4.8 9.7 0.00 0.00 0.00 66 1013.4
20260507155118 20 166 4.8 9.7 0.00 0.00 0.00 66 1013.5
20260507154617 19 177 3.2 8.0 0.00 0.00 0.00 62 1013.6
20260507154116 19 187 4.8 8.0 0.00 0.00 0.00 60 1013.7
20260507153615 20 212 3.2 6.4 0.00 0.00 0.00 56 1013.7
20260507153113 20 225 3.2 8.0 0.00 0.00 0.00 54 1013.6
20260507152612 20 186 4.8 8.0 0.00 0.00 0.00 52 1013.6
20260507152111 21 233 3.2 6.4 0.00 0.00 0.00 52 1013.5
20260507151109 21 171 0.0 6.4 0.00 0.00 0.00 55 1013.5
20260507150607 20 209 1.6 9.7 0.00 0.00 0.00 56 1013.6
20260507150106 20 245 4.8 9.7 0.00 0.00 0.00 55 1013.5
20260507145605 21 251 4.8 9.7 0.00 0.00 0.00 52 1013.6
20260507145104 21 182 6.4 9.7 0.00 0.00 0.00 51 1013.6
20260507144601 22 251 3.2 6.4 0.00 0.00 0.00 50 1013.6
20260507144100 21 7 3.2 6.4 0.00 0.00 0.00 49 1013.6
20260507143057 21 228 4.8 11.3 0.00 0.00 0.00 51 1013.6
20260507142555 21 219 4.8 8.0 0.00 0.00 0.00 49 1013.6
20260507142053 23 225 1.6 8.0 0.00 0.00 0.00 47 1013.7
20260507141552 22 233 4.8 9.7 0.00 0.00 0.00 50 1013.7
20260507141051 21 195 4.8 11.3 0.00 0.00 0.00 49 1013.8
20260507140550 21 160 6.4 11.3 0.00 0.00 0.00 58 1013.9
20260507140048 21 114 3.2 11.3 0.00 0.00 0.00 59 1013.9
20260507135548 21 120 4.8 11.3 0.00 0.00 0.00 61 1014.0
20260507135047 23 255 1.6 8.0 0.00 0.00 0.00 56 1013.9
20260507134546 21 106 3.2 8.0 0.00 0.00 0.00 60 1014.1
20260507134044 21 166 3.2 6.4 0.00 0.00 0.00 59 1014.1
20260507133543 21 213 3.2 14.5 0.00 0.00 0.00 63 1014.0
20260507133042 21 210 3.2 14.5 0.00 0.00 0.00 66 1014.0
20260507132541 20 194 3.2 16.1 0.00 0.00 0.00 66 1014.0
20260507132040 20 206 8.0 16.1 0.00 0.00 0.00 70 1014.1
20260507131539 20 212 9.7 12.9 0.00 0.00 0.00 68 1014.0
20260507131038 19 188 6.4 14.5 0.00 0.00 0.00 73 1014.1
20260507130537 18 200 6.4 14.5 0.00 0.00 0.00 76 1014.2
20260507130034 18 187 6.4 14.5 0.00 0.00 0.00 76 1014.2
20260507125532 18 205 6.4 12.9 0.00 0.00 0.00 77 1014.2
20260507125032 18 220 6.4 12.9 0.00 0.00 0.00 78 1014.3
20260507124529 18 211 9.7 12.9 0.00 0.00 0.00 78 1014.2
20260507124028 18 195 6.4 12.9 0.00 0.00 0.00 76 1014.2
20260507123527 18 208 4.8 12.9 0.00 0.00 0.00 75 1014.2
20260507122523 18 202 4.8 9.7 0.00 0.00 0.00 76 1014.2
20260507122022 18 201 6.4 11.3 0.00 0.00 0.00 75 1014.3
20260507121521 18 204 6.4 11.3 0.00 0.00 0.00 74 1014.3
20260507121019 19 275 3.2 8.0 0.00 0.00 0.00 72 1014.3
20260507120518 19 266 3.2 9.7 0.00 0.00 0.00 73 1014.4
20260507120017 18 231 3.2 11.3 0.00 0.00 0.00 73 1014.3
20260507115516 18 209 6.4 14.5 0.00 0.00 0.00 73 1014.4
20260507115015 20 209 8.0 14.5 0.00 0.00 0.00 69 1014.5
20260507114514 22 230 1.6 9.7 0.00 0.00 0.00 63 1014.3
20260507114013 20 211 3.2 12.9 0.00 0.00 0.00 70 1014.5
20260507113512 18 266 6.4 12.9 0.00 0.00 0.00 77 1014.6
20260507113011 17 254 6.4 12.9 0.00 0.00 0.00 79 1014.7
20260507112510 17 227 8.0 12.9 0.00 0.00 0.00 80 1014.7
20260507112008 17 194 6.4 12.9 0.00 0.00 0.00 79 1014.6
20260507111507 17 202 8.0 14.5 0.00 0.00 0.00 78 1014.7
20260507111006 17 227 6.4 14.5 0.00 0.00 0.00 78 1014.8
20260507110005 17 202 9.7 16.1 0.00 0.00 0.00 79 1014.9
20260507105503 17 258 9.7 16.1 0.00 0.00 0.00 78 1014.9
20260507104501 17 262 9.7 16.1 0.00 0.00 0.00 78 1015.0
20260507103457 17 263 9.7 20.9 0.00 0.00 0.00 83 1015.1
20260507102955 17 254 9.7 20.9 0.00 0.00 0.00 83 1014.9
20260507101953 17 239 6.4 16.1 0.00 0.00 0.00 83 1015.0
20260507101453 17 246 6.4 12.9 0.00 0.00 0.00 83 1015.1
20260507100951 17 232 8.0 16.1 0.00 0.00 0.00 84 1015.0
20260507100450 16 246 8.0 16.1 0.00 0.00 0.00 84 1015.0
20260507095444 16 246 8.0 17.7 0.00 0.00 0.00 87 1015.0
20260507094942 16 227 9.7 17.7 0.00 0.00 0.00 88 1014.9
20260507094441 16 252 9.7 16.1 0.00 0.00 0.00 89 1014.9
20260507093935 16 235 9.7 17.7 0.00 0.00 0.00 88 1014.9
20260507092933 16 216 8.0 16.1 0.00 0.00 0.00 85 1014.8
20260507092430 17 216 8.0 17.7 0.00 0.00 0.00 86 1014.8
20260507091427 16 214 11.3 20.9 0.00 0.00 0.00 89 1014.5
20260507090926 17 240 9.7 19.3 0.00 0.00 0.00 87 1014.6
20260507090425 16 227 11.3 19.3 0.00 0.00 0.00 86 1014.5
20260507085924 17 217 9.7 19.3 0.00 0.00 0.00 87 1014.5
20260507085422 16 228 12.9 22.5 0.00 0.00 0.00 84 1014.4
20260507084921 17 226 11.3 22.5 0.00 0.00 0.00 82 1014.2
20260507084420 18 242 8.0 16.1 0.00 0.00 0.00 77 1014.0
20260507083918 18 207 8.0 19.3 0.00 0.00 0.00 80 1014.0
20260507083416 18 237 9.7 20.9 0.00 0.00 0.00 81 1013.9
20260507082915 18 218 9.7 20.9 0.00 0.00 0.00 82 1013.8
20260507082414 17 217 9.7 24.1 0.00 0.00 0.00 84 1013.7
20260507081912 17 235 11.3 19.3 0.00 0.00 0.00 85 1013.8
20260507080409 18 220 9.7 20.9 0.00 0.00 0.00 87 1013.6
20260507075904 18 199 8.0 16.1 0.00 0.00 0.00 84 1013.6
20260507075403 18 202 6.4 19.3 0.00 0.00 0.00 85 1013.6
20260507074902 18 193 6.4 16.1 0.00 0.00 0.00 87 1013.6
20260507074401 17 227 8.0 16.1 0.00 0.00 0.00 89 1013.8
20260507073900 17 201 8.0 14.5 0.00 0.00 0.00 92 1013.7
20260507073358 17 256 6.4 14.5 0.00 0.00 0.00 97 1013.6
20260507072857 16 210 6.4 12.9 0.00 0.00 0.00 98 1013.6
20260507072356 15 228 6.4 14.5 0.00 0.00 0.00 100 1013.7
20260507071854 15 201 6.4 14.5 0.00 0.00 0.00 100 1013.7
20260507071353 15 232 4.8 12.9 0.00 0.00 0.00 100 1013.8
20260507070853 15 224 8.0 12.9 0.00 0.00 0.00 100 1013.7
20260507065851 14 227 8.0 14.5 0.00 0.00 0.00 100 1013.6
20260507065349 15 211 4.8 12.9 0.00 0.00 0.00 100 1013.6
20260507064847 14 211 3.2 11.3 0.00 0.00 0.00 100 1013.5
20260507064347 14 200 6.4 11.3 0.00 0.00 0.00 100 1013.5
20260507063846 14 193 4.8 16.1 0.00 0.00 0.00 100 1013.5
20260507063342 13 202 9.7 16.1 0.00 0.00 0.00 100 1013.5
20260507062840 13 203 8.0 16.1 0.00 0.00 0.00 100 1013.4
20260507062339 13 211 4.8 14.5 0.00 0.00 0.00 100 1013.4
20260507061837 13 198 8.0 12.9 0.00 0.00 0.00 100 1013.4
20260507060834 13 191 6.4 12.9 0.00 0.00 0.00 100 1013.3
20260507060333 13 205 6.4 16.1 0.00 0.00 0.00 100 1013.2
20260507055831 13 204 8.0 16.1 0.00 0.00 0.00 100 1013.1
20260507055330 13 200 9.7 16.1 0.00 0.00 0.00 100 1013.0
20260507054830 13 198 8.0 16.1 0.00 0.00 0.00 100 1013.0
20260507054329 13 195 6.4 19.3 0.00 0.00 0.00 100 1012.9
20260507053826 13 188 8.0 19.3 0.00 0.00 0.00 100 1012.9
20260507053325 13 199 9.7 19.3 0.00 0.00 0.00 100 1012.8
20260507052821 13 203 8.0 16.1 0.00 0.00 0.00 100 1012.8
20260507052318 13 205 9.7 16.1 0.00 0.00 0.00 100 1012.7
20260507051817 13 192 8.0 16.1 0.00 0.00 0.00 100 1012.5
20260507051316 13 187 6.4 11.3 0.00 0.00 0.00 100 1012.5
20260507050814 13 167 1.6 9.7 0.00 0.00 0.00 100 1012.3
20260507050309 13 192 4.8 11.3 0.00 0.00 0.00 100 1012.3
20260507045807 13 207 4.8 11.3 0.00 0.00 0.00 100 1012.4
20260507045306 13 214 4.8 12.9 0.00 0.00 0.00 100 1012.3
20260507044803 13 213 6.4 12.9 0.00 0.00 0.00 100 1012.3
20260507044302 13 214 8.0 12.9 0.00 0.00 0.00 100 1012.2
20260507043801 13 202 4.8 16.1 0.00 0.00 0.00 100 1012.0
20260507043259 13 216 4.8 11.3 0.00 0.00 0.00 100 1012.1
20260507042758 13 215 4.8 9.7 0.00 0.00 0.00 100 1011.9
20260507042257 13 199 4.8 16.1 0.00 0.00 0.00 100 1011.9
20260507041755 13 206 6.4 16.1 0.00 0.00 0.00 100 1011.9
20260507041253 13 207 6.4 14.5 0.00 0.00 0.00 100 1011.9
20260507040751 13 211 4.8 11.3 0.00 0.00 0.00 100 1011.8
20260507040250 13 224 3.2 6.4 0.00 0.00 0.00 100 1011.8
20260507035748 13 213 3.2 8.0 0.00 0.00 0.00 100 1011.8
20260507035247 13 210 3.2 14.5 0.00 0.00 0.00 100 1011.7
20260507034746 13 216 8.0 14.5 0.00 0.00 0.00 100 1011.7
20260507034245 13 230 4.8 11.3 0.00 0.00 0.00 100 1011.6
20260507033744 13 218 4.8 12.9 0.00 0.00 0.00 100 1011.6
20260507032530 13 214 3.2 9.7 0.00 0.00 0.00 100 1011.4
20260507032029 13 204 4.8 11.3 0.00 0.00 0.00 100 1011.2
20260507031526 13 196 6.4 11.3 0.00 0.00 0.00 100 1011.2
20260507031025 13 196 6.4 11.3 0.00 0.00 0.00 100 1011.1
20260507030524 13 198 4.8 14.5 0.00 0.00 0.00 100 1011.1
20260507030021 13 191 6.4 14.5 0.00 0.00 0.00 100 1011.2
20260507025521 13 186 4.8 9.7 0.00 0.00 0.00 100 1011.3
20260507025019 13 187 4.8 12.9 0.00 0.00 0.00 100 1011.1
20260507024518 13 179 4.8 12.9 0.00 0.00 0.00 100 1011.2
20260507024017 13 187 6.4 19.3 0.00 0.00 0.00 100 1011.2
20260507023514 13 174 8.0 19.3 0.00 0.00 0.00 100 1011.2
20260507023013 13 173 8.0 16.1 0.00 0.00 0.00 100 1011.1
20260507022511 13 198 6.4 14.5 0.00 0.00 0.00 100 1011.1
20260507022010 13 205 8.0 14.5 0.00 0.00 0.00 100 1011.1
20260507021508 13 189 6.4 11.3 0.00 0.00 0.00 100 1011.0
20260507021007 13 196 3.2 16.1 0.00 0.00 0.00 100 1010.9
20260507020506 13 188 8.0 16.1 0.00 0.00 0.00 100 1010.9
20260507020005 13 177 4.8 11.3 0.00 0.00 0.00 100 1010.9
20260507015504 13 181 4.8 9.7 0.00 0.00 0.00 100 1010.8
20260507015003 13 175 3.2 9.7 0.00 0.00 0.00 100 1010.8
20260507014501 13 166 3.2 11.3 0.00 0.00 0.00 100 1010.9
20260507013459 14 179 8.0 12.9 0.00 0.00 0.00 100 1010.9
20260507012956 14 192 6.4 12.9 0.00 0.00 0.00 100 1010.9
20260507012455 14 190 6.4 12.9 0.00 0.00 0.00 100 1011.0
20260507011953 14 202 6.4 16.1 0.00 0.00 0.00 100 1010.9
20260507011451 14 202 8.0 17.7 0.00 0.00 0.00 100 1010.9
20260507010449 15 208 8.0 19.3 0.00 0.00 0.00 100 1010.6
20260507005947 15 203 8.0 19.3 0.00 0.00 0.00 100 1010.5
20260507005443 15 204 9.7 20.9 0.00 0.00 0.00 100 1010.5
20260507004942 15 200 8.0 29.0 0.00 0.00 0.00 100 1010.3
20260507004441 15 200 11.3 29.0 0.00 0.00 0.00 100 1010.2
20260507003937 15 202 11.3 33.8 0.00 0.00 0.00 100 1010.1
20260507003432 15 212 14.5 33.8 0.00 0.00 0.00 100 1009.9
20260507002931 15 207 16.1 30.6 0.00 0.00 0.00 100 1009.8
20260507001427 16 202 17.7 35.4 0.00 0.00 0.00 100 1009.8
20260507000926 16 201 12.9 33.8 0.00 0.00 0.00 100 1009.7
20260506235924 16 202 19.3 37.0 0.00 0.00 0.00 100 1009.6
20260506235422 16 201 19.3 37.0 0.00 0.00 0.00 100 1009.5
20260506234916 16 198 17.7 37.0 0.00 0.00 0.00 100 1009.5
20260506234356 16 201 22.5 37.0 0.00 0.00 0.00 98 1009.3
20260506233844 16 198 19.3 46.7 0.00 0.00 0.00 96 1009.2
20260506233325 17 197 27.4 46.7 0.00 0.00 0.00 94 1009.2
20260506232824 17 201 12.9 29.0 0.00 0.00 0.00 94 1009.0